OBJECT V (43777 NORAD) Tracking and Keplerian Element Data

This shows tracking and keplerian element data for the satellite.

Feedback or suggestion? Click here.




ElementValue
Catalog43777
NameOBJECT V
Epoch Orbit567
Epoch Day10.77912403
Epoch Year2019
RAAN84.5205
Inclination97.76
Eccentricity0.0016863
Argument of Perigee134.3121
Mean Anonmoly225.9485
Mean Motion14.94405849
Decay Rate2E-07
L11 43777U 18099V 19010.77912403 .00000020 00000-0 72014-5 0 9990
L22 43777 97.7600 84.5205 0016863 134.3121 225.9485 14.94405849 5673

Live tracking and technical data element details for OBJECT V (NORAD 43777). OBJECT V can be tracked NOW for your location showing map with azimuth and elevation plus other details from your city location.

Track the satellite on the map from your city or location and see movement details for azimuth, elevation, latitude, longitude, range, height, and movement on the map or in text.







IsCatalogInMostPopularTable: catalog: 43777, numindb: 16
Update: records affected: 1



GetName: 43777 OBJECT V

Hit Count: updated at: Thu, 17 Jan 2019 15:37:08 GMT